Regional Weather Roundup
Issued by NWS Kansas City/Pleasant Hill, MO

Home | Current Version | Previous Version | Graphics & Text | Print | Product List | Glossary Off
Versions: 1 2 3 4 5 6 7 8 9 10 11 12 13 14 15 16 17 18 19 20 21 22 23 24 25 26 27 28 29 30 31 32 33 34 35 36 37 38 39 40 41 42 43 44 45 46 47 48 49 50

000
ASUS43 KEAX 181511
RWREAX

WEATHER ROUNDUP FOR EASTERN KANSAS AND NORTHWEST MISSOURI
NATIONAL WEATHER SERVICE KANSAS CITY/PLEASANT HILL MO
1000 AM CDT SAT APR 18 2015

KSZ040-057-103>105-MOZ028-029-037-043-181600-
...KANSAS CITY METROPOLITAN AREA...

CITY           SKY/WX    TMP DP  RH WIND       PRES   REMARKS
K.C. INTL      LGT RAIN  62  59  90 SW23G32   29.91R
K.C. DOWNTOWN  TSTM      63  57  81 SE13G24   29.98R
LEES SUMMIT    TSTM      60  58  92 W13G24    29.93F FOG
OLATHE - IXD   LGT RAIN  61  58  90 SW15G24   29.95R
OLATHE - OJC   TSTM      60  58  92 S12       29.96R FOG
LAWRENCE       TSTM      59  57  93 SW21G32   29.92F FOG

$$

MOZ001>008-011>017-020>025-030>033-038>040-044>046-053-054-181600-
...NORTHERN AND CENTRAL MISSOURI...

CITY           SKY/WX    TMP DP  RH WIND       PRES   REMARKS
ST. JOSEPH     LGT RAIN  64  57  78 CALM      29.89F
MOSBY          CLOUDY    64  59  82 S10       29.93R
WARRENSBURG    CLOUDY    64  59  82 S8        29.94R
WHITEMAN AFB   CLOUDY    67  61  80 SW9       29.93R
CLINTON        TSTM      64  61  88 S8        29.98R VSB 3/4
SEDALIA        CLOUDY    71  61  70 S9        29.95R
WARSAW         NOT AVBL
MARSHALL       CLOUDY    72  63  73 SE9       29.94S
CHILLICOTHE      N/A     69  61  75 SE7       29.93F
MOBERLY        CLOUDY    70  59  68 SE8       29.97R
KIRKSVILLE     TSTM      63  60  90 SE17      29.99R FOG

$$

MOZ041-047>049-056>058-063>065-088>090-097-181600-
...EASTERN AND SOUTHERN MISSOURI...

CITY           SKY/WX    TMP DP  RH WIND       PRES   REMARKS
ST. LOUIS INTL CLOUDY    70  60  70 E8        29.99F HAZE
SPIRIT OF STL  CLOUDY    70  60  70 CALM      29.98S
COLUMBIA       PTSUNNY   68  62  81 SE7       29.97R
JEFFERSON CITY PTSUNNY   69  61  75 SE9       29.97R
MEXICO         CLOUDY    68  64  88 SE5       29.97S
HANNIBAL       CLOUDY    72  57  60 E3        30.00R
ROLLA          PTSUNNY   65  61  87 S7        29.98R
LEBANON        CLOUDY    64  61  88 SE8       29.98S
OSAGE BEACH    CLOUDY    66  59  77 SE10G16   29.97S
SPRINGFIELD    TSTM      62  59  90 SE8       29.96R
BRANSON        CLOUDY    63  59  88 S6        29.99R
NEVADA         LGT RAIN  61  59  94 W6        29.96S
JOPLIN         TSTM      59  59 100 VRB3      29.99R FOG
WEST PLAINS    CLOUDY    63  60  90 SE6       30.02R

$$

IAZ060-094-KSZ022-034>040-054-083-096-NEZ052-066-093-181600-
...KANSAS...SOUTHEAST NEBRASKA AND IOWA...

CITY           SKY/WX    TMP DP  RH WIND       PRES   REMARKS
TOPEKA         RAIN      61  59  93 S9        29.95R FOG
MANHATTAN      LGT RAIN  62  61  96 CALM      29.92S FOG
EMPORIA        LGT RAIN  60  57  89 E10       29.94S
CHANUTE        LGT RAIN  62  61  96 SW9       29.95S
WICHITA        LGT RAIN  63  59  87 SE3       29.92R
OMAHA          CLOUDY    65  57  75 SE9       29.90F
LINCOLN        LGT RAIN  59  58  96 E3        29.92F FOG
FALLS CITY     CLOUDY    63  57  81 CALM      29.89F
LAMONI         LGT RAIN  63  59  87 E3        29.93S
DES MOINES     CLOUDY    65  56  72 NE9       29.96S

$$



USA.gov is the U.S. government's official web portal to all federal, state and local government web resources and services.